When you browse on this site, cookies collect data to enhance your experience and personalize the content and advertising you see.
Visit our Privacy Policy to learn more. By continuing to use the site, you agree to this use of cookies and data.
  • In Hungary
  • List of Countries
  • For 7 days
  • Water Temperature
  • Weather Map
  • News
  • Weather Widgets
  • user-avatar
    Login

    Hourly Weather Repka

    Today, 18 October, Friday

    Time Temperature Precipitation Wind Pressure Humidity
    00:00 +11°C° 0 mm 3 mps 743 mmHg 85%
    01:00 +10°C° 0 mm 2 mps 743 mmHg 88%
    02:00 +10°C° 0 mm 2 mps 743 mmHg 90%
    03:00 +10°C° 0 mm 2 mps 743 mmHg 90%
    04:00 +9°C° 0 mm 2 mps 743 mmHg 91%
    05:00 +9°C° 0 mm 2 mps 743 mmHg 91%
    06:00 +10°C° 0 mm 2 mps 743 mmHg 89%
    07:00 +10°C° 0 mm 2 mps 744 mmHg 86%
    08:00 +10°C° 0 mm 2 mps 744 mmHg 84%
    09:00 +13°C° 0 mm 2 mps 744 mmHg 78%
    10:00 +13°C° 0 mm 3 mps 744 mmHg 73%
    11:00 +14°C° 0 mm 3 mps 744 mmHg 68%
    12:00 +16°C° 0 mm 3 mps 744 mmHg 66%
    13:00 +16°C° 0 mm 3 mps 744 mmHg 65%
    14:00 +16°C° 0 mm 2 mps 744 mmHg 64%
    15:00 +15°C° 0 mm 2 mps 744 mmHg 69%
    16:00 +14°C° 0 mm 2 mps 744 mmHg 74%
    17:00 +13°C° 0 mm 1 mps 744 mmHg 79%
    18:00 +13°C° 0 mm 1 mps 744 mmHg 82%
    19:00 +12°C° 0 mm 1 mps 745 mmHg 84%
    20:00 +12°C° 0 mm 1 mps 745 mmHg 87%
    21:00 +11°C° 0 mm 1 mps 745 mmHg 88%
    22:00 +10°C° 0 mm 0 mps 745 mmHg 89%
    23:00 +10°C° 0 mm 0 mps 745 mmHg 89%

    Tomorrow, 19 October, Saturday

    Time Temperature Precipitation Wind Pressure Humidity
    00:00 +9°C° 0 mm 0 mps 745 mmHg 90%
    01:00 +9°C° 0 mm 0 mps 745 mmHg 90%
    02:00 +9°C° 0 mm 0 mps 746 mmHg 90%
    03:00 +9°C° 0 mm 0 mps 746 mmHg 90%
    04:00 +10°C° 0 mm 1 mps 746 mmHg 91%
    05:00 +10°C° 0 mm 1 mps 746 mmHg 91%
    06:00 +10°C° 0 mm 1 mps 746 mmHg 90%
    07:00 +11°C° 0 mm 1 mps 746 mmHg 88%
    08:00 +11°C° 0 mm 1 mps 747 mmHg 86%
    09:00 +13°C° 0 mm 2 mps 747 mmHg 81%
    10:00 +14°C° 0 mm 2 mps 747 mmHg 75%
    11:00 +15°C° 0 mm 2 mps 747 mmHg 70%
    12:00 +16°C° 0 mm 2 mps 747 mmHg 68%
    13:00 +16°C° 0 mm 2 mps 747 mmHg 67%
    14:00 +17°C° 0 mm 2 mps 746 mmHg 65%
    15:00 +15°C° 0 mm 2 mps 746 mmHg 70%
    16:00 +14°C° 0 mm 2 mps 746 mmHg 75%
    17:00 +13°C° 0 mm 2 mps 746 mmHg 80%
    18:00 +13°C° 0 mm 2 mps 746 mmHg 82%
    19:00 +12°C° 0 mm 2 mps 747 mmHg 83%
    20:00 +12°C° 0 mm 2 mps 747 mmHg 85%
    21:00 +12°C° 0 mm 2 mps 747 mmHg 86%
    22:00 +10°C° 0 mm 2 mps 747 mmHg 87%
    23:00 +10°C° 0 mm 2 mps 747 mmHg 88%

    Day after tomorrow, 20 October, Sunday

    Time Temperature Precipitation Wind Pressure Humidity
    00:00 +10°C° 0 mm 2 mps 747 mmHg 88%
    01:00 +9°C° 0 mm 2 mps 747 mmHg 88%
    02:00 +9°C° 0 mm 2 mps 747 mmHg 88%
    03:00 +9°C° 0 mm 2 mps 747 mmHg 89%
    04:00 +9°C° 0 mm 3 mps 747 mmHg 89%
    05:00 +9°C° 0 mm 3 mps 747 mmHg 90%
    06:00 +9°C° 0 mm 3 mps 747 mmHg 87%
    07:00 +10°C° 0 mm 3 mps 747 mmHg 85%
    08:00 +10°C° 0 mm 3 mps 747 mmHg 83%
    09:00 +12°C° 0 mm 3 mps 747 mmHg 78%
    10:00 +13°C° 0 mm 3 mps 747 mmHg 74%
    11:00 +15°C° 0 mm 4 mps 747 mmHg 69%
    12:00 +15°C° 0 mm 4 mps 747 mmHg 68%
    13:00 +17°C° 0 mm 4 mps 747 mmHg 67%
    14:00 +17°C° 0 mm 4 mps 747 mmHg 65%
    15:00 +16°C° 0 mm 3 mps 747 mmHg 70%
    16:00 +14°C° 0 mm 3 mps 747 mmHg 75%
    17:00 +13°C° 0 mm 3 mps 747 mmHg 81%
    18:00 +13°C° 0 mm 3 mps 747 mmHg 81%
    19:00 +12°C° 0 mm 3 mps 747 mmHg 82%
    20:00 +12°C° 0 mm 3 mps 747 mmHg 83%
    21:00 +12°C° 0 mm 3 mps 747 mmHg 84%
    22:00 +11°C° 0 mm 3 mps 747 mmHg 84%
    23:00 +11°C° 0 mm 3 mps 747 mmHg 84%

    21 October, Monday

    Time Temperature Precipitation Wind Pressure Humidity
    00:00 +11°C° 0 mm 3 mps 747 mmHg 85%
    01:00 +10°C° 0 mm 3 mps 747 mmHg 85%
    02:00 +10°C° 0 mm 3 mps 747 mmHg 85%
    03:00 +10°C° 0 mm 3 mps 747 mmHg 85%
    04:00 +10°C° 0 mm 3 mps 747 mmHg 85%
    05:00 +9°C° 0 mm 3 mps 747 mmHg 85%
    06:00 +10°C° 0 mm 3 mps 747 mmHg 82%
    07:00 +10°C° 0 mm 4 mps 747 mmHg 79%
    08:00 +11°C° 0 mm 4 mps 747 mmHg 75%
    09:00 +13°C° 0 mm 4 mps 747 mmHg 70%
    10:00 +14°C° 0 mm 5 mps 747 mmHg 65%
    11:00 +16°C° 0 mm 5 mps 747 mmHg 60%
    12:00 +16°C° 0 mm 5 mps 747 mmHg 59%
    13:00 +16°C° 0 mm 5 mps 746 mmHg 57%
    14:00 +17°C° 0 mm 5 mps 746 mmHg 56%
    15:00 +16°C° 0 mm 5 mps 746 mmHg 61%
    16:00 +15°C° 0 mm 4 mps 745 mmHg 66%
    17:00 +13°C° 0 mm 4 mps 745 mmHg 70%
    18:00 +13°C° 0 mm 4 mps 745 mmHg 70%
    19:00 +13°C° 0 mm 5 mps 744 mmHg 71%
    20:00 +13°C° 0 mm 5 mps 744 mmHg 71%
    21:00 +13°C° 0 mm 5 mps 744 mmHg 71%
    22:00 +12°C° 0 mm 5 mps 743 mmHg 71%
    23:00 +11°C° 0 mm 6 mps 743 mmHg 71%

    22 October, Tuesday

    Time Temperature Precipitation Wind Pressure Humidity
    00:00 +11°C° 0 mm 6 mps 742 mmHg 72%
    01:00 +11°C° 0 mm 6 mps 742 mmHg 72%
    02:00 +11°C° 0 mm 6 mps 742 mmHg 73%
    03:00 +10°C° 0 mm 6 mps 742 mmHg 74%
    04:00 +10°C° 0 mm 5 mps 741 mmHg 75%
    05:00 +10°C° 0 mm 5 mps 741 mmHg 76%
    06:00 +10°C° 0 mm 5 mps 741 mmHg 76%
    07:00 +10°C° 0 mm 5 mps 741 mmHg 76%
    08:00 +12°C° 0 mm 5 mps 741 mmHg 77%
    09:00 +12°C° 0 mm 5 mps 742 mmHg 77%
    10:00 +13°C° 0 mm 5 mps 742 mmHg 78%
    11:00 +14°C° 0 mm 5 mps 742 mmHg 78%
    12:00 +14°C° 0 mm 5 mps 743 mmHg 76%
    13:00 +14°C° 0 mm 5 mps 743 mmHg 73%
    14:00 +13°C° 0 mm 5 mps 743 mmHg 70%
    15:00 +12°C° 0 mm 4 mps 744 mmHg 71%
    16:00 +11°C° 0 mm 4 mps 744 mmHg 72%
    17:00 +10°C° 0 mm 4 mps 745 mmHg 73%
    18:00 +8°C° 0 mm 4 mps 746 mmHg 74%
    19:00 +8°C° 0 mm 4 mps 746 mmHg 75%
    20:00 +7°C° 0 mm 4 mps 747 mmHg 77%
    21:00 +7°C° 0 mm 3 mps 747 mmHg 79%
    22:00 +7°C° 0 mm 3 mps 747 mmHg 81%
    23:00 +6°C° 0 mm 2 mps 748 mmHg 83%

    23 October, Wednesday

    Time Temperature Precipitation Wind Pressure Humidity
    00:00 +6°C° 0 mm 2 mps 748 mmHg 84%
    01:00 +5°C° 0 mm 2 mps 748 mmHg 86%
    02:00 +5°C° 0 mm 2 mps 749 mmHg 88%
    03:00 +5°C° 0 mm 2 mps 749 mmHg 88%
    04:00 +5°C° 0 mm 1 mps 749 mmHg 88%
    05:00 +5°C° 0 mm 1 mps 750 mmHg 89%
    06:00 +6°C° 0 mm 1 mps 750 mmHg 86%
    07:00 +5°C° 0 mm 0 mps 750 mmHg 83%
    08:00 +6°C° 0 mm 0 mps 750 mmHg 80%
    09:00 +8°C° 0 mm 1 mps 750 mmHg 73%
    10:00 +9°C° 0 mm 1 mps 751 mmHg 67%
    11:00 +10°C° 0 mm 1 mps 751 mmHg 60%
    12:00 +10°C° 0 mm 2 mps 750 mmHg 59%
    13:00 +10°C° 0 mm 2 mps 750 mmHg 57%
    14:00 +12°C° 0 mm 2 mps 750 mmHg 56%
    15:00 +10°C° 0 mm 2 mps 750 mmHg 61%
    16:00 +9°C° 0 mm 2 mps 750 mmHg 66%
    17:00 +8°C° 0 mm 2 mps 750 mmHg 71%
    18:00 +8°C° 0 mm 2 mps 750 mmHg 73%
    19:00 +7°C° 0 mm 2 mps 750 mmHg 76%
    20:00 +7°C° 0 mm 2 mps 750 mmHg 78%
    21:00 +7°C° 0 mm 2 mps 750 mmHg 80%
    22:00 +6°C° 0 mm 2 mps 750 mmHg 82%
    23:00 +6°C° 0 mm 2 mps 750 mmHg 84%
    Show more